GPS BIIF-11 (PRN 10)

Last updated on Sun Jun 21 2026 00:03:26 GMT+0000 (Coordinated Universal Time)

1 41019U 15062A 26170.77000951 -.00000091 00000+0 00000+0 0 9993 2 41019 56.9611 30.7115 0112009 231.0751 127.9690 2.00567013 77882
UTC large
Height (km)
Speed (km/s)
/
Latitude / Longitude
Inclination (degrees)
Orbital Period (minutes)
Azimuth
Elevation
Range (km)
Doppler Factor

Next 0 passes for location: London (51.5072 / 0.1276)

No passes found over London.
GPS BIIF-11 (PRN 10)